Regional Weather Roundup
Issued by NWS

Home | Current Version | Previous Version | Graphics & Text | Print | Product List | Glossary On
Versions: 1 2 3 4 5 6 7 8 9 10 11 12 13 14 15 16 17 18 19 20 21 22 23 24 25 26 27 28 29 30 31 32 33 34 35 36 37 38 39 40 41 42 43 44 45 46 47 48 49 50
829
ASUS44 KLIX 270610
RWRLA
LOUISIANA WEATHER ROUNDUP
NATIONAL WEATHER SERVICE NEW ORLEANS LA
1200 AM CST THU NOV 27 2014

NOTE: "FAIR" INDICATES FEW OR NO CLOUDS BELOW 12,000 FEET WITH NO
      SIGNIFICANT WEATHER AND/OR OBSTRUCTIONS TO VISIBILITY.
      SKY/WX - SKY CONDITION AND SIGNIFICANT WEATHER.
      TMP - AIR TEMPERATURE.    DP   - DEWPOINT TEMPERATURE.
      RH  - RELATIVE HUMIDITY.  PRES - PRESSURE.
      HX  - HEAT INDEX.         WCI  - WIND CHILL INDEX.

*  THESE STATIONS ARE NOT NWS OR FAA STATIONS AND ARE NOT UNDER
   NWS QUALITY CONTROL.

LAZ040-048-061>063-065-066-069-270700-
SOUTHEAST LOUISIANA

CITY           SKY/WX    TMP DP  RH WIND       PRES   REMARKS
N.O. AUDUBON     N/A     55  50  82 MISG        N/A
6HR MIN TEMP:  52; 6HR MAX TEMP:  59;

N.O. INTL ARPT CLEAR     57  48  72 W13       30.27S
6HR MIN TEMP:  56; 6HR MAX TEMP:  61;

N.O. LAKEFRONT CLEAR     60  50  69 W20       30.27R
6HR MIN TEMP:  58; 6HR MAX TEMP:  62;

N.O. DOWNTOWN* FAIR      57  46  67 SW5       30.28R
6HR MIN TEMP:  55; 6HR MAX TEMP:  63;

SLIDELL        CLEAR     56  47  71 VRB5      30.26R
6HR MIN TEMP:  56; 6HR MAX TEMP:  62;

BATON ROUGE    CLEAR     50  43  77 W6        30.27R
6HR MIN TEMP:  50; 6HR MAX TEMP:  62;

BOOTHVILLE     CLEAR     61  52  72 W12       30.28R
6HR MIN TEMP:  60; 6HR MAX TEMP:  62;

BELLE CHASSE   CLEAR     56  48  74 SW5       30.27S
6HR MIN TEMP:  51; 6HR MAX TEMP:  58;

BOGALUSA*        N/A     49  41  74 W5        30.27R
6HR MIN TEMP:  47; 6HR MAX TEMP:  56;

NEW ROADS*     FAIR      48  44  84 NW6       30.29R
6HR MIN TEMP:  46; 6HR MAX TEMP:  61;

GONZALES*      FAIR      51  50  99 CALM      30.28R
6HR MIN TEMP:  50; 6HR MAX TEMP:  60;

HAMMOND*       CLEAR     50  43  76 NW3       30.28R
HOUMA*         CLEAR     52  51  97 W5        30.29S
6HR MIN TEMP:  51; 6HR MAX TEMP:  57;

PORT FOURCHON* CLEAR     61  55  82 W8        30.32R

$$

LAZ041-044-053-054-270700-
SOUTHWEST LOUISIANA

CITY           SKY/WX    TMP DP  RH WIND       PRES   REMARKS
LAKE CHARLES   CLEAR     54  44  69 NW5       30.32R
6HR MIN TEMP:  53; 6HR MAX TEMP:  61;

LAFAYETTE      CLEAR     53  48  83 W6        30.29R
6HR MIN TEMP:  52; 6HR MAX TEMP:  62;

PATTERSON      CLEAR     55  50  82 W8        30.31S
6HR MIN TEMP:  52; 6HR MAX TEMP:  57;

SALT POINT       N/A     63  55  75 VRB7      30.28R
6HR MIN TEMP:  62; 6HR MAX TEMP:  63;

NEW IBERIA     CLEAR     56  47  71 W8        30.30R
6HR MIN TEMP:  56; 6HR MAX TEMP:  59;

CHENAULT AIRPK CLEAR     55  44  66 W6        30.32R
6HR MIN TEMP:  55; 6HR MAX TEMP:  61;


$$

LAZ027-028-270700-
CENTRAL LOUISIANA

CITY           SKY/WX    TMP DP  RH WIND       PRES   REMARKS
FORT POLK      CLEAR     51  38  60 N9        30.30S
6HR MIN TEMP:  46; 6HR MAX TEMP:  61;

ALEXANDRIA INT CLEAR     45  39  79 NW5       30.30R
6HR MIN TEMP:  44; 6HR MAX TEMP:  58;

ALEXANDRIA     CLEAR     45  37  73 VRB3      30.31R
6HR MIN TEMP:  42; 6HR MAX TEMP:  55;


$$

LAZ001-002-270700-
NORTHWEST LOUISIANA

CITY           SKY/WX    TMP DP  RH WIND       PRES   REMARKS
SHREVEPORT     CLEAR     47  34  60 NW8       30.33R
6HR MIN TEMP:  46; 6HR MAX TEMP:  57;

BARKSDALE AFB  CLEAR     47  33  57 NW6       30.33R
6HR MIN TEMP:  45; 6HR MAX TEMP:  58;

DTN SHREVEPORT CLEAR     45  32  60 W5        30.33R
6HR MIN TEMP:  45; 6HR MAX TEMP:  59;


$$

LAZ014-016-270700-
NORTHEAST LOUISIANA

CITY           SKY/WX    TMP DP  RH WIND       PRES   REMARKS
MONROE         CLEAR     45  35  68 W5        30.30R
6HR MIN TEMP:  45; 6HR MAX TEMP:  58;

TALLULAH       CLEAR     44  34  67 W3        30.28R
6HR MIN TEMP:  42; 6HR MAX TEMP:  56;


$$




USA.gov is the U.S. government's official web portal to all federal, state and local government web resources and services.